Flag for Canada Weather past 2 weeks in Pond Inlet, Nunavut Territory, Canada

Now
-27 °F

Sunny.


Feels Like: -42 °F
Forecast: -28 / -19 °F
Wind: 5 mph from Southwest

Location: Pond Inlet

Current Time: Dec 28, 2014 at 11:01:37 AM

Latest Report: Dec 28, 2014 at 10:00 AM


Visibility: 9 mi

Pressure: 29.82 "Hg

Humidity: 67%

Dew point: -35 °F

Location of Pond InletLocation

Historic Weather in Pond Inlet — Graph

°F

Pond Inlet temperature yesterday

Maximum temperature yesterday: -27 °F (at 8:00 AM)
Minimum temperature yesterday: -33 °F (at 12:00 AM)
Average temperature yesterday: -30 °F

Past Weeks' High & Low Weather Summary

 TemperatureHumidityPressure
High-9 °F (Dec 17, 5:00 AM)83% (Dec 16, 3:00 AM)30.37 "Hg (Dec 16, 3:00 AM)
Low-33 °F (Dec 26, 6:00 AM)60% (Dec 27, 1:00 PM)29.69 "Hg (Dec 17, 8:00 AM)
Average-23 °F73%30.05 "Hg
* Reported Dec 13 10:00 AM — Dec 28 10:00 AM, Pond Inlet, Weather by CustomWeather, © 2014

Note: Actual official high and low records may vary slightly from our data, if they occured in-between our weather recording intervals... More about our weather records

Advertising

Pond Inlet weather history for previous 24 hours

 ConditionsComfort  
Time TempWeatherWind HumidityBarometerVisibility
10:00 AM
Dec 28
-27 °FSunny.5 mph67%29.82 "Hg9 mi
9:00 AM-27 °FSunny.3 mph67%29.83 "Hg9 mi
8:00 AM-31 °FSunny.6 mph67%29.86 "Hg9 mi
7:00 AM-24 °FSunny.7 mph75%29.87 "Hg9 mi
6:00 AM-27 °FSunny.6 mph67%29.88 "Hg9 mi
5:00 AM-27 °FClear.8 mph74%29.90 "Hg9 mi
4:00 AM-26 °FClear.No wind67%29.92 "Hg9 mi
3:00 AM-26 °FClear.5 mph75%29.94 "Hg9 mi
2:00 AM-24 °FClear.3 mph68%29.95 "Hg9 mi
1:00 AM-26 °FClear.7 mph75%29.97 "Hg9 mi
12:00 AM-27 °FSunny.8 mph67%29.98 "Hg9 mi
11:00 PM
Dec 27
-27 °FClear.7 mph67%30.00 "Hg9 mi
10:00 PM-27 °FClear.6 mph74%30.02 "Hg9 mi
9:00 PM-27 °FClear.6 mph74%30.04 "Hg9 mi
8:00 PM-27 °FClear.7 mph67%30.06 "Hg9 mi
7:00 PM-29 °FClear.7 mph67%30.08 "Hg9 mi
6:00 PM-29 °FSunny.6 mph67%30.09 "Hg9 mi
5:00 PM-29 °FSunny.7 mph67%30.09 "Hg9 mi
4:00 PM-27 °FSunny.8 mph67%30.09 "Hg9 mi
3:04 PM-27 °FSunny.7 mph74%30.10 "Hg5 mi
2:00 PM-31 °FSunny.7 mph67%30.10 "Hg9 mi
1:00 PM-29 °FSunny.5 mph60%30.11 "Hg9 mi
12:00 PM-27 °FSunny.6 mph67%30.12 "Hg9 mi
11:00 AM-27 °FSunny.7 mph67%30.13 "Hg9 mi
Weather by CustomWeather, © 2014

See weather overviewHow to use our weather pages